Showing default

COSMOS 158, 2801

Orbit data source: Space-Track

COSMOS 158, 2801 is a payload satellite owned by OKB-10 (CIS) in LEO that was launched on Mon, 15 May 1967 UTC via a KOSMOS 11K65M launch vehicle from the Plesetsk Missile And Space Complex (PKMTR). Payload-class satellites include a variety of spacecraft equipped with specific instruments for various scientific and technological missions. These include communications satellites like Starlink; space stations such as the ISS; scientific satellites like the Hubble; Earth observation satellites from companies like Planet Labs, Umbra, and HawkEye 360; GPS; miniature CubeSats for education and research; and military/defense satellites.

Loading next visibility...
Identifier
2801, 1967-045A
Orbit
LEO
Country
Flag of CISCIS
Related business
Manufacturer
OKB-10
Mission
Spacecraft
Bus & Motor
KAUR-1 11F617, Unknown motor
Mass
800 kg wet, 800 kg dry
Launch date (UTC)
1967-05-15 (59 years ago)
Launch vehicle
KOSMOS 11K65M
Launch site
Plesetsk Missile And Space Complex (PKMTR)
Object type
Payload
Rocket body
Debris
Shape & HBR
Unknown
Radar Cross Section
Large (>1 m²)

Expand to show TLE details & history
Last TLE update: 3 hours ago

TLE from 3 hours ago
0 COSMOS 158
1  2801U 67045A   26104.55174189  .00000003  00000-0  95677-5 0  9998
2  2801  74.0410 182.0467 0056173  44.5146 316.0499 14.36935366 87286
Epoch: 2026-04-14T13:14Z
TLE epoch observation values (Epoch: 2026-04-14T13:14:30.499Z)
Latitude
-0.00004°
Longitude
140.69325°
Altitude
742.456 km
Speed
7.499 km/s
True Right ascension
12h 08m 11s
True Declination
0° 00' 00"
Sunlit
Object was in full shadow at epoch
Visualization orbit readout
Latitude
Unknown
Longitude
Unknown
Altitude
Unknown
Speed
Unknown
Apparent Right ascension
Unknown
Apparent Declination
Unknown
Sunlit
N/A
Visualization observer readout
Local Sidereal Time
22:29:18
Azimuth
Unknown
Elevation
Unknown
Doppler factor
Unknown
Orbital elements
Apogee altitude
806.397 km
Perigee altitude
726.132 km
Semi-major axis
7,144.401 km
Eccentricity
0.00562
Inclination
74.041°
RAAN
182.0467°
Arg. of periapsis
44.5146°
True anomaly
315.60089°
Mean anomaly
316.0499°
Eccentric anomaly
315.82562°
Mean motion
3.59414 °/min
Orbital period
100.16 mins
BSTAR
0.0000095677
Loading maneuver chart data...
Computing Atmospheric mass density...
Loading historical data...
Loading historical data...
Loading historical data...
Loading historical data...
Loading historical data...
Loading historical data...
Loading historical data...
Other satellites on launch #45 in the year 1967 (1967-05-15 UTC)

Documentation

Showing up to 5 results
|